Lid_Strength_Index
16 18 21 20 18 17 17 18 19 17 15 16 17 17 15 14 13 13 12 11 9 8 6 3 3 2 2 2 2 3 3 3 4 5 6 7 7 9 9 9 9 9 10 10
19 20 18 16 17 17 17 18 19 18 15 16 17 18 16 14 14 13 12 11 11 9 8 5 3 3 3 2 2 3 3 4 4 5 5 6 8 9 10 10 10 10 10 11
20 19 15 16 16 17 17 19 19 20 17 16 17 19 17 15 13 12 12 11 10 10 9 7 4 4 3 3 2 3 3 5 4 5 7 10 11 10 11 11 11 11 11 11
18 16 16 17 18 17 20 16 17 17 20 25 16 23 19 16 15 13 12 12 10 10 9 7 5 4 3 3 2 2 4 4 5 6 7 9 9 11 11 11 12 12 12 13
19 17 17 17 17 16 17 15 15 15 16 16 17 17 18 14 13 11 10 10 10 9 9 8 6 4 3 2 2 2 4 5 5 8 7 7 8 9 11 12 13 13 13 13
17 15 15 15 14 14 12 12 12 12 15 20 16 17 15 13 12 10 8 7 7 6 7 7 6 4 3 3 2 3 5 5 6 7 7 6 9 13 13 13 14 14 14 14
17 16 15 13 15 12 11 14 22 23 25 20 14 17 14 11 10 9 9 8 7 6 5 5 5 5 4 3 3 3 5 5 7 7 8 8 11 12 12 13 14 15 15 15
23 23 16 12 12 13 13 13 19 22 22 19 13 18 14 10 9 8 7 7 7 7 6 5 5 4 4 4 3 3 5 6 7 8 8 10 11 12 13 13 14 15 15 15
21 20 13 12 11 11 13 15 11 16 16 18 18 15 12 10 9 8 9 8 8 8 7 5 5 4 4 4 3 4 5 7 8 10 11 12 12 13 14 14 14 14 14 15
18 20 13 12 11 11 11 10 16 16 21 22 20 18 16 12 12 10 10 9 9 9 8 6 5 5 4 3 3 4 5 7 9 11 12 13 13 14 14 13 14 15 16 16
15 15 15 12 14 16 14 14 13 14 16 20 21 18 11 12 11 11 10 10 10 10 8 6 6 5 6 6 6 7 8 10 12 12 13 13 14 14 14 14 14 15 15 16
12 14 18 16 12 12 12 13 13 17 18 16 17 17 9 10 10 10 10 10 10 10 7 7 7 7 8 8 8 10 10 11 12 13 14 14 14 14 14 15 15 15 15 15
13 17 24 20 16 13 13 13 12 13 14 17 19 17 9 10 10 9 10 11 12 10 10 10 9 9 9 9 9 11 12 12 13 13 14 14 15 15 15 14 15 15 15 16
10 16 19 21 17 16 16 15 14 15 17 17 17 15 12 11 12 11 11 12 13 12 12 12 12 12 11 10 10 12 13 13 13 13 14 15 15 15 15 15 15 15 16 16
15 19 18 16 15 15 16 16 15 16 15 16 16 15 13 11 13 12 10 12 13 14 13 13 14 13 13 12 12 12 13 13 13 14 14 14 14 14 15 15 15 16 16 16
13 20 19 21 18 16 17 16 15 15 14 14 14 14 10 12 12 11 12 13 14 14 14 14 14 14 14 13 13 13 13 13 13 14 15 14 15 15 15 16 16 16 16 17
14 17 18 26 19 21 24 18 15 15 14 13 15 12 11 14 13 12 13 13 14 14 14 14 14 15 16 15 14 14 13 13 14 14 14 14 15 16 16 16 17 17 17 18
15 16 18 23 25 29 17 15 15 15 13 13 12 12 13 14 12 11 12 13 14 14 14 14 15 16 16 15 14 14 14 14 14 15 15 15 15 16 17 17 17 18 18 18
13 14 21 28 32 21 17 15 15 16 14 12 13 13 14 12 12 10 12 12 13 13 14 14 15 15 15 15 15 14 15 15 15 16 16 16 16 17 17 18 18 18 18 19
14 13 18 30 26 28 20 14 14 13 18 12 13 14 14 13 15 14 13 12 13 12 13 14 14 15 16 16 15 15 15 16 16 16 17 17 17 17 17 18 18 19 18 18
22 19 22 27 24 23 16 14 13 22 17 12 12 14 14 15 14 13 13 13 13 14 13 12 12 14 15 15 14 15 15 16 16 17 17 17 17 17 17 18 19 19 18 17
24 24 26 24 24 26 15 15 15 14 12 12 13 14 14 14 15 13 13 14 14 14 15 14 14 14 14 14 14 15 16 16 17 17 17 18 18 18 18 17 18 18 18 18
25 20 23 21 20 14 14 13 11 12 12 12 14 14 14 14 15 14 15 14 15 15 15 15 15 16 15 14 14 14 15 16 17 18 18 19 18 17 17 17 19 19 19 17
21 19 20 19 17 16 14 14 14 14 14 13 14 15 14 15 15 15 15 15 14 14 15 16 17 17 17 17 17 16 16 17 17 18 18 18 18 18 18 17 17 17 18 19
20 19 20 21 17 16 15 15 15 14 14 14 14 14 14 15 15 15 15 15 15 14 15 15 16 16 17 18 18 16 15 16 16 17 18 18 17 17 18 18 18 17 17 16
21 20 20 20 16 17 16 16 15 15 15 15 15 15 15 15 15 15 15 15 14 15 17 18 18 19 19 19 19 20 17 17 17 17 17 17 17 19 19 19 19 15 15 15